This demonstration page uses our WeatherBlox Daily Observations layout. Learn more.

Left ArrowRight Arrow

Hourly Observations for December 26, 2019

Temp ( °F °C ) Dew Point ( °F °C ) Humidity (%) Winds ( mph kmh ) Pressure ( in mb ) Visibility ( mi km ) Precip ( " mm )
12:56 am 00:56 Cloudy 27 -2.8 25 -3.9 92 92 NNW 14 22 29.94 1014 10 16 0.00 0.00
1:13 am 01:13 Cloudy 27 -3 25 -4 93 93 NNW 13 20 30.01 1016 10 16 0.00 0.00
1:56 am 01:56 Cloudy 27 -2.8 25 -3.9 92 92 N 13 20 29.97 1015 10 16 0.00 0.00
2:56 am 02:56 Cloudy 26 -3.3 24 -4.4 92 92 N 13 20 29.98 1015 10 16 0.00 0.00
3:56 am 03:56 Cloudy 27 -2.8 24 -4.4 89 89 N 14 22 30.00 1016 10 16 0.00 0.00
4:56 am 04:56 Cloudy 27 -2.8 24 -4.4 89 89 N 8 13 30.01 1016 10 16 0.00 0.00
5:56 am 05:56 Cloudy 27 -2.8 24 -4.4 89 89 N 12 19 30.03 1017 10 16 0.00 0.00
6:45 am 06:45 Partly Cloudy 27 -3 23 -5 86 86 NW 8 13 30.12 1020 10 16 0.00 0.00
6:56 am 06:56 Clear 26 -3.3 23 -5 88 88 NW 6 9 30.06 1018 10 16 0.00 0.00
7:56 am 07:56 Clear 24 -4.4 22 -5.6 91 91 NNW 8 13 30.08 1019 10 16 0.00 0.00
8:56 am 08:56 Sunny 28 -2.2 25 -3.9 88 88 NNW 3 6 30.12 1020 10 16 0.00 0.00
9:47 am 09:47 Mostly Cloudy 30 -1 25 -4 80 80 N 12 19 30.17 1022 10 16 0.00 0.00
9:56 am 09:56 Mostly Cloudy 31 -0.6 26 -3.3 82 82 N 12 19 30.13 1020 10 16 0.00 0.00
10:22 am 10:22 Mostly Cloudy 34 1 25 -4 70 70 N 9 15 30.16 1021 10 16 0.00 0.00
10:56 am 10:56 Mostly Sunny 34 1.1 25 -3.9 70 70 N 8 13 30.14 1021 10 16 0.00 0.00
11:56 am 11:56 Partly Cloudy 32 0 25 -3.9 75 75 NNW 9 15 30.14 1021 10 16 0.00 0.00
12:04 pm 12:04 Mostly Cloudy 32 0 25 -4 75 75 NW 9 15 30.18 1022 10 16 0.00 0.00
12:56 pm 12:56 Cloudy 35 1.7 25 -3.9 67 67 N 8 13 30.14 1021 10 16 0.00 0.00
1:56 pm 13:56 Cloudy 36 2.2 27 -2.8 70 70 NNW 7 11 30.13 1020 10 16 0.00 0.00
2:51 pm 14:51 Mostly Sunny 37 3 27 -3 65 65 N 8 13 30.14 1021 10 16 0.00 0.00
2:56 pm 14:56 Mostly Sunny 37 2.8 27 -2.8 67 67 N 10 17 30.14 1021 10 16 0.00 0.00
3:15 pm 15:15 Mostly Cloudy 37 3 28 -2 70 70 NNW 10 17 30.15 1021 10 16 0.00 0.00
3:31 pm 15:31 Partly Cloudy 37 3 28 -2 70 70 NNW 9 15 30.15 1021 10 16 0.00 0.00
3:56 pm 15:56 Sunny 36 2.2 27 -2.8 70 70 N 9 15 30.15 1021 10 16 0.00 0.00
4:56 pm 16:56 Mostly Cloudy 33 0.6 27 -2.8 78 78 N 5 7 30.18 1022 10 16 0.00 0.00
5:56 pm 17:56 Clear 31 -0.6 27 -2.8 85 85 Calm 30.21 1023 10 16 0.00 0.00
6:56 pm 18:56 Clear 29 -1.7 26 -3.3 89 89 NW 6 9 30.24 1024 10 16 0.00 0.00
7:56 pm 19:56 Clear 29 -1.7 26 -3.3 89 89 WNW 5 7 30.24 1024 10 16 0.00 0.00
8:56 pm 20:56 Clear 28 -2.2 26 -3.3 92 92 W 3 6 30.25 1024 10 16 0.00 0.00
9:56 pm 21:56 Clear 25 -3.9 23 -5 92 92 SW 5 7 30.25 1025 10 16 0.00 0.00
10:56 pm 22:56 Clear 24 -4.4 22 -5.6 91 91 W 5 7 30.25 1025 10 16 0.00 0.00
11:56 pm 23:56 Clear 21 -6.1 18 -7.8 88 88 Calm 30.26 1025 10 16 0.00 0.00

Powered by AerisWeather